Temperature
18 17 17 17 17 17 17 17 17 17 17 16 16 16 16 16 16 16 16 16 16 16 16 16 16 16 16 16 16 16 16 16 16 16 16 16 16 16 16 16 16 16 16
18 17 17 17 17 17 17 17 17 16 16 16 16 16 16 16 16 16 16 16 16 16 16 16 16 16 16 16 15 15 15 15 15 15 15 15 16 16 16 16 16 15 15
18 17 17 17 17 17 17 17 16 16 16 16 16 16 16 16 16 16 16 16 16 16 15 15 15 15 15 15 15 15 15 15 15 15 15 15 15 15 15 15 15 15 15
18 17 17 17 17 17 17 16 16 16 16 16 16 16 16 16 16 16 16 16 15 15 15 15 15 15 15 15 15 15 15 15 15 14 14 14 14 14 14 14 14 14 14
18 17 17 17 16 16 16 16 16 16 16 16 16 16 16 16 16 16 16 15 15 15 15 15 14 14 14 14 14 14 14 14 14 14 14 14 14 14 14 14 14 14 13
17 17 17 17 16 16 16 16 16 16 16 16 16 15 15 15 15 15 15 15 15 14 14 14 14 14 14 14 14 14 14 14 14 13 13 13 13 13 13 13 13 13 13
17 17 17 16 16 16 16 16 16 15 15 15 15 15 15 15 15 15 15 15 14 14 14 14 14 14 14 14 14 14 13 13 13 13 13 12 12 12 12 12 12 12 12
17 17 16 16 16 16 15 15 15 15 15 15 15 15 15 14 14 14 14 14 14 14 14 13 13 13 13 13 13 13 13 13 12 12 12 12 12 11 11 11 11 11 11
16 16 16 16 15 15 15 15 15 15 15 15 14 14 14 14 14 14 14 14 14 13 13 13 13 13 13 12 12 12 12 12 11 11 11 11 11 11 11 11 10 10 10
16 16 15 15 15 15 15 14 14 14 14 14 14 14 14 13 13 13 13 13 13 13 13 12 12 12 12 12 12 11 11 11 10 10 10 10 10 10 10 10 9 9 9
15 15 15 15 15 14 14 14 14 14 14 13 13 13 13 13 13 13 13 12 12 12 12 11 11 11 11 11 11 10 10 10 10 10 9 9 9 9 9 9 8 8 8
15 15 15 14 14 14 14 14 13 13 13 13 13 12 12 12 12 12 12 12 12 11 11 10 10 10 10 10 10 9 9 9 9 9 8 8 8 7 7 7 7 8 7
14 14 14 14 13 13 13 13 13 13 12 12 12 12 11 11 11 11 11 11 11 10 10 10 9 9 9 9 9 9 8 8 8 8 7 7 6 6 6 6 6 6 6
14 13 13 13 13 13 12 12 12 12 12 12 11 11 11 11 10 10 10 10 10 10 9 9 9 9 8 8 8 8 7 7 7 7 6 6 6 6 6 6 6 6 6
13 13 12 12 12 12 11 11 11 11 11 11 11 11 11 10 10 9 9 9 9 9 9 8 8 8 8 7 7 7 7 6 6 6 6 5 5 5 5 5 5 5 5
12 12 12 11 11 11 11 10 10 10 10 10 10 10 9 9 9 9 9 8 8 8 8 8 7 7 7 6 6 6 6 6 5 5 5 5 5 5 5 5 4 4 4
12 11 11 11 11 10 10 10 10 9 9 9 9 8 8 8 8 8 8 8 7 7 8 7 7 6 6 6 6 5 5 5 5 5 5 5 4 4 4 4 4 4 4
11 11 11 10 10 10 10 10 9 9 9 8 8 8 7 7 7 7 7 7 7 7 7 6 6 6 5 5 5 5 5 5 5 4 4 4 4 4 4 3 3 3 3
11 10 10 10 10 9 9 9 9 8 8 7 7 7 7 7 7 7 7 7 7 6 6 6 5 5 5 5 5 4 4 4 4 4 4 4 3 3 3 3 3 3 3
10 10 10 9 9 9 8 8 8 8 7 7 7 7 7 7 7 6 6 6 6 5 5 5 5 5 5 4 4 4 4 4 4 4 3 3 3 3 3 3 2 2 2
10 9 9 9 9 8 8 8 8 7 7 7 7 6 6 6 6 6 6 5 5 5 5 5 5 4 4 4 4 4 4 4 3 3 3 3 3 3 2 2 2 2 2
9 9 9 8 8 8 8 7 7 7 7 7 6 6 6 6 6 5 5 5 5 5 4 4 4 4 4 4 4 4 3 3 3 3 3 3 2 2 2 2 2 2 2
9 9 8 8 8 8 7 7 7 7 7 6 6 6 6 6 5 5 5 5 5 4 4 4 4 4 4 4 3 3 3 3 3 3 3 2 2 2 2 2 2 2 2
8 8 8 8 8 8 7 7 7 7 6 6 6 6 6 5 5 5 5 5 4 4 4 4 4 4 4 3 3 3 3 3 3 2 2 2 2 2 2 2 2 2 2
8 8 8 8 8 7 7 7 7 7 6 6 6 6 6 5 5 5 5 5 4 4 4 4 4 4 3 3 3 3 3 3 3 2 2 2 2 2 2 2 2 2 2
8 8 8 8 8 8 7 7 7 7 6 6 6 6 6 5 5 5 5 4 4 4 4 4 4 4 3 3 3 3 3 3 3 3 2 2 2 2 2 2 2 2 1
Wind_Speed
4 3 3 2 2 2 3 4 4 4 4 5 5 5 5 5 5 5 5 5 5 5 4 5 5 4 3 3 3 3 3 3 4 3 2 2 1 2 2 2 2 3 3
4 4 3 3 2 2 2 2 3 3 3 4 4 4 5 5 5 6 6 5 5 5 5 5 5 4 4 3 3 4 4 4 4 4 2 1 2 2 2 1 2 1 1
5 4 3 3 2 2 2 2 2 3 3 3 3 4 4 4 5 5 5 5 5 5 5 5 5 4 4 3 3 3 3 3 3 3 2 1 1 1 2 2 2 3 3
5 4 3 2 2 2 1 1 2 2 3 2 3 3 3 3 3 4 4 4 3 2 2 3 3 3 4 4 4 4 3 3 2 2 2 1 1 1 1 1 1 2 3
5 4 3 2 2 2 2 2 2 2 2 2 2 1 1 2 2 3 3 3 3 2 1 1 1 2 2 3 3 3 3 2 2 1 1 1 1 0 1 1 0 1 2
5 3 3 3 3 2 2 2 2 2 2 2 2 1 1 1 2 3 3 2 2 2 1 1 1 1 1 2 3 3 3 3 3 2 2 1 1 1 1 1 1 0 0
4 3 3 3 3 2 2 3 2 2 2 2 2 2 1 1 3 5 6 4 3 3 2 1 1 1 2 3 5 6 6 5 3 3 2 1 1 1 1 0 1 1 0
4 4 3 3 3 2 3 2 2 2 2 2 2 2 3 3 5 6 7 6 4 4 3 3 3 2 2 4 5 5 5 5 4 3 3 2 2 1 0 1 1 2 2
4 3 3 3 3 3 2 2 2 3 3 3 3 3 3 3 5 5 6 5 5 6 6 6 5 4 4 5 6 6 6 6 11 13 12 11 11 10 6 3 3 3 2
3 4 4 4 4 3 3 3 3 4 4 4 4 4 5 4 6 6 6 5 6 5 5 6 8 7 8 7 6 6 6 5 6 8 10 12 12 14 14 7 3 2 2
5 5 5 5 5 4 4 4 4 4 5 5 5 5 5 5 6 8 7 5 5 6 5 5 6 11 12 11 9 7 7 7 7 8 8 8 9 9 10 11 8 4 4
6 6 6 6 5 5 5 5 5 5 5 5 5 5 5 5 7 8 10 9 8 7 6 5 7 13 14 13 11 12 12 10 8 8 8 7 7 7 7 9 11 11 9
7 7 6 7 6 6 6 5 5 4 4 4 4 4 4 5 6 10 11 11 11 8 8 11 12 14 13 12 14 14 10 8 7 7 7 6 5 5 5 6 8 9 10
7 6 6 7 7 7 6 5 5 4 4 5 5 5 4 5 5 5 6 8 11 10 9 12 14 15 12 11 10 9 8 7 6 6 5 4 4 5 5 4 4 5 5
7 7 6 6 7 7 8 7 6 5 4 5 4 4 5 5 4 6 7 6 6 7 8 7 7 7 8 7 7 7 7 6 6 5 5 4 5 5 5 5 4 5 5
7 6 6 6 6 6 8 10 16 13 15 14 10 8 7 8 10 12 13 13 13 11 9 8 7 7 7 6 6 6 6 5 5 4 5 4 4 5 5 5 5 5 5
7 7 6 6 6 6 7 8 8 11 16 16 14 13 12 12 13 14 15 14 13 11 9 8 7 6 6 6 5 5 4 4 4 4 5 4 4 4 4 5 5 5 5
8 8 7 6 6 6 7 7 7 8 7 7 10 13 13 14 13 13 13 12 9 8 7 6 6 5 5 5 5 5 5 5 4 4 4 4 4 4 4 4 4 4 4
8 6 6 7 7 7 7 8 8 8 8 6 6 7 10 12 13 12 9 7 7 6 6 5 5 5 4 4 4 4 4 4 4 4 4 4 4 4 4 4 4 5 4
7 11 9 7 7 7 7 8 7 7 7 6 6 4 4 6 6 6 6 6 6 5 5 5 4 4 4 4 4 4 4 4 4 4 4 3 3 3 3 4 4 4 4
7 8 11 8 7 7 7 7 7 7 6 6 4 4 6 6 6 5 5 5 4 4 4 4 3 3 3 3 3 3 4 3 3 3 3 3 3 3 3 3 3 3 3
7 7 7 7 7 7 6 6 6 6 6 6 4 5 7 6 5 4 4 3 3 3 3 3 3 2 2 2 2 2 2 2 2 2 2 2 2 2 2 3 3 3 3
8 8 7 7 7 8 7 6 5 5 5 5 4 4 4 4 4 3 3 2 2 3 3 3 3 2 2 1 1 1 1 0 0 0 0 1 1 2 2 2 3 3 4
8 8 8 7 6 6 6 5 5 5 4 4 4 3 3 3 3 3 2 2 2 2 2 2 2 2 1 0 0 1 1 2 1 1 1 1 1 1 2 2 2 3 3
7 6 6 6 6 5 5 5 4 4 4 4 3 3 3 2 2 2 2 2 2 2 2 2 2 2 1 1 2 2 3 3 2 2 2 2 2 2 2 3 3 3 3
6 6 5 5 5 5 5 5 4 4 4 3 3 3 3 2 2 2 2 2 2 2 2 2 2 2 2 2 2 3 4 4 4 3 2 2 2 2 2 2 4 3 4
Wind_Direction
165 166 168 176 179 173 186 193 191 192 187 185 187 190 197 202 201 199 205 198 201 213 214 209 217 207 206 210 207 206 208 200 228 261 268 296 311 317 331 299 269 260 266
153 145 152 150 148 162 188 190 179 183 185 186 184 192 200 203 199 198 205 203 205 215 223 217 226 210 205 211 207 212 211 206 212 241 270 310 314 329 346 347 349 323 303
144 140 137 138 148 172 192 182 171 174 176 178 181 192 198 199 198 200 199 201 206 216 220 217 222 202 207 213 210 216 217 208 204 218 249 286 314 1 21 11 21 19 25
142 142 146 158 162 167 162 154 158 160 160 167 177 185 186 187 191 189 186 192 191 199 216 217 207 197 211 213 215 217 211 201 191 204 239 272 296 348 51 347 357 30 29
143 142 152 145 129 115 109 122 127 138 157 150 147 147 153 177 192 180 174 176 174 169 165 172 162 154 178 191 197 196 182 174 167 185 235 263 287 290 241 248 260 44 44
142 145 137 123 118 114 110 113 111 114 118 115 124 130 120 189 147 149 154 149 149 141 142 135 122 109 112 116 127 129 139 170 191 195 210 224 259 256 240 185 187 140 31
132 130 128 128 127 129 121 109 113 118 112 106 105 107 102 87 99 105 108 115 111 112 114 105 93 59 86 101 86 78 70 69 110 157 160 194 224 244 206 161 132 126 140
123 121 120 122 122 110 104 107 112 104 102 99 95 99 92 77 92 103 105 102 90 80 76 74 79 57 68 103 101 86 72 56 63 85 103 83 64 45 152 187 160 118 84
113 116 119 122 118 111 111 111 106 101 92 84 78 86 91 71 73 99 108 101 89 75 67 64 69 68 69 103 108 101 85 67 67 75 75 68 59 53 60 84 94 99 68
103 104 107 108 110 110 108 102 95 97 97 89 76 69 76 69 65 85 103 107 99 85 69 61 63 71 67 81 99 103 94 77 75 68 62 57 54 51 50 53 67 86 80
98 97 94 92 95 92 88 87 93 94 91 88 82 70 65 64 65 72 89 105 110 98 81 65 59 70 72 72 78 85 93 91 79 74 67 59 52 49 47 50 53 65 80
99 94 89 84 85 85 87 82 86 94 90 86 85 72 56 56 66 76 83 92 102 100 93 82 76 76 74 73 76 81 84 84 80 73 66 58 52 49 47 53 58 62 65
97 92 89 84 79 80 85 84 83 85 92 88 88 81 66 63 68 75 83 89 92 93 90 89 83 78 75 72 70 73 75 79 81 78 72 59 47 44 49 51 51 56 55
101 97 95 93 85 75 70 70 81 84 92 95 98 94 82 71 71 78 83 87 87 88 88 84 79 74 73 72 68 65 66 73 81 81 75 63 53 50 47 44 47 43 47
101 98 95 93 95 83 71 58 66 58 81 101 99 102 100 89 70 86 98 93 97 101 99 84 77 74 72 68 65 61 62 65 69 69 75 71 63 57 47 39 44 47 47
108 103 101 101 100 100 96 78 58 66 66 67 74 89 79 86 90 87 88 91 94 100 94 89 83 80 78 75 73 66 58 59 60 69 71 69 64 59 54 46 48 50 46
112 113 109 107 105 103 102 103 93 68 62 61 66 78 87 89 88 90 89 83 78 84 88 88 86 84 81 76 73 69 60 53 56 66 66 63 63 61 60 52 46 44 40
102 105 107 104 102 100 99 98 100 100 88 64 52 65 78 84 85 88 90 85 73 70 83 90 89 86 84 80 74 69 64 60 59 60 60 59 60 64 61 53 45 39 32
107 108 105 102 99 99 99 97 96 95 93 87 79 64 68 78 73 69 74 85 91 85 81 81 84 86 86 82 76 71 69 65 61 61 58 56 57 60 56 47 41 34 30
107 115 113 108 106 105 104 104 102 101 98 95 92 86 78 78 77 68 68 79 87 88 87 86 83 85 85 84 80 77 72 67 64 61 58 54 53 59 54 44 37 31 22
114 117 115 111 110 113 113 112 112 110 108 102 92 86 98 96 92 85 82 84 90 93 95 95 91 88 85 86 87 83 76 65 58 58 56 51 50 48 39 36 31 25 16
110 110 110 112 112 110 110 111 113 112 112 108 98 88 93 96 98 96 90 86 89 95 106 109 103 92 88 90 96 92 79 65 53 50 50 46 43 37 30 28 25 17 13
110 110 107 105 108 110 109 110 115 117 115 114 114 109 105 105 106 106 104 97 94 99 106 112 108 84 61 60 83 121 128 98 348 349 39 35 27 18 11 10 6 1 358
114 117 118 116 114 117 119 120 120 122 121 121 120 120 121 123 124 125 126 120 114 117 124 131 137 139 130 353 298 251 240 254 264 258 247 278 328 340 344 344 340 337 339
118 121 124 126 127 127 127 127 128 128 128 130 132 134 135 137 143 151 159 159 161 170 175 175 180 194 216 254 287 300 308 304 290 271 247 248 278 299 315 324 325 324 327
125 127 128 131 133 135 138 140 140 139 139 141 145 150 157 167 176 183 187 193 201 207 215 221 223 229 239 259 285 304 315 314 303 287 252 246 263 285 302 306 315 314 317
Height
1532 1533 1534 1535 1537 1538 1539 1540 1542 1544 1545 1547 1549 1550 1552 1554 1556 1557 1558 1559 1560 1561 1562 1563 1563 1564 1565 1566 1567 1568 1568 1568 1568 1568 1568 1568 1568 1568 1568 1568 1568 1568 1568
1531 1532 1533 1534 1535 1536 1537 1539 1540 1542 1543 1545 1546 1548 1549 1551 1552 1553 1554 1556 1557 1557 1558 1559 1559 1560 1561 1562 1563 1563 1564 1564 1564 1564 1564 1565 1564 1564 1564 1564 1564 1564 1564
1530 1531 1532 1533 1534 1535 1536 1537 1539 1540 1541 1543 1544 1545 1546 1548 1549 1550 1551 1552 1553 1553 1554 1555 1555 1556 1556 1557 1558 1559 1559 1560 1560 1560 1560 1561 1560 1560 1560 1560 1560 1560 1560
1529 1530 1531 1532 1533 1534 1535 1536 1537 1538 1539 1540 1542 1543 1544 1545 1546 1547 1547 1548 1549 1550 1550 1550 1551 1551 1552 1553 1554 1555 1555 1556 1556 1556 1556 1556 1556 1556 1556 1556 1556 1556 1556
1528 1529 1530 1532 1533 1533 1534 1535 1536 1537 1537 1538 1539 1540 1541 1542 1543 1543 1544 1544 1545 1546 1547 1547 1547 1548 1549 1550 1551 1551 1552 1552 1552 1552 1552 1552 1552 1552 1552 1552 1552 1552 1552
1527 1528 1530 1531 1532 1532 1533 1533 1534 1535 1536 1537 1537 1538 1539 1539 1540 1540 1541 1541 1542 1542 1543 1544 1545 1545 1546 1547 1547 1548 1548 1548 1548 1548 1548 1548 1548 1549 1549 1548 1548 1548 1548
1526 1528 1529 1530 1531 1532 1532 1532 1533 1534 1535 1535 1536 1536 1537 1537 1538 1538 1539 1539 1540 1540 1541 1542 1542 1543 1543 1543 1544 1544 1544 1545 1545 1545 1545 1545 1545 1545 1546 1545 1545 1545 1545
1526 1527 1528 1529 1530 1531 1531 1531 1532 1532 1533 1534 1534 1535 1535 1535 1536 1537 1537 1538 1538 1538 1539 1540 1540 1540 1541 1541 1541 1541 1542 1542 1542 1542 1542 1542 1543 1543 1543 1543 1542 1542 1542
1525 1527 1528 1528 1529 1530 1530 1530 1531 1531 1532 1532 1532 1533 1533 1534 1535 1535 1536 1536 1537 1537 1538 1538 1538 1538 1539 1539 1539 1539 1539 1539 1540 1540 1540 1540 1540 1540 1540 1540 1540 1540 1540
1525 1526 1527 1527 1528 1529 1529 1529 1530 1530 1530 1531 1531 1532 1532 1533 1534 1534 1535 1535 1535 1536 1536 1536 1537 1537 1537 1538 1538 1537 1537 1538 1538 1538 1538 1538 1538 1538 1538 1538 1539 1539 1539
1524 1525 1526 1527 1528 1528 1528 1529 1529 1529 1530 1530 1530 1531 1531 1532 1533 1533 1534 1534 1535 1535 1535 1536 1536 1537 1537 1537 1537 1537 1537 1538 1538 1538 1538 1537 1537 1537 1537 1537 1537 1538 1538
1522 1524 1525 1526 1527 1528 1528 1528 1528 1529 1529 1530 1530 1530 1531 1532 1532 1533 1534 1534 1534 1534 1534 1535 1536 1536 1536 1537 1537 1537 1538 1538 1538 1538 1538 1537 1537 1537 1537 1537 1537 1537 1537
1522 1523 1524 1526 1527 1527 1527 1528 1528 1528 1529 1529 1530 1530 1531 1532 1532 1533 1533 1534 1534 1535 1535 1536 1537 1537 1537 1537 1538 1538 1538 1539 1539 1538 1538 1539 1539 1539 1539 1539 1539 1538 1538
1521 1523 1524 1525 1526 1527 1527 1528 1528 1529 1529 1530 1531 1531 1532 1532 1533 1533 1534 1534 1535 1536 1536 1537 1538 1538 1538 1539 1539 1539 1539 1540 1540 1540 1540 1541 1541 1541 1540 1540 1540 1539 1538
1521 1523 1524 1525 1526 1527 1528 1529 1529 1530 1531 1532 1532 1533 1533 1533 1535 1535 1536 1536 1537 1538 1538 1538 1539 1539 1540 1540 1541 1541 1542 1542 1542 1542 1542 1542 1542 1542 1542 1541 1540 1539 1539
1521 1523 1524 1526 1527 1528 1529 1530 1531 1532 1533 1533 1534 1535 1535 1536 1537 1537 1538 1539 1539 1540 1541 1540 1541 1541 1542 1543 1543 1543 1544 1544 1544 1544 1544 1544 1544 1543 1543 1542 1541 1540 1539
1522 1523 1525 1527 1528 1529 1530 1531 1532 1534 1535 1536 1536 1537 1538 1539 1539 1540 1541 1541 1542 1543 1543 1543 1543 1544 1545 1546 1546 1546 1546 1546 1546 1546 1545 1545 1545 1544 1543 1543 1542 1541 1540
1523 1524 1526 1528 1529 1531 1532 1533 1535 1536 1537 1538 1539 1540 1541 1542 1543 1543 1544 1544 1545 1545 1545 1546 1546 1547 1548 1548 1548 1548 1548 1548 1547 1547 1546 1546 1545 1545 1544 1544 1543 1542 1541
1525 1526 1528 1530 1531 1533 1534 1536 1537 1538 1540 1541 1542 1543 1545 1545 1546 1546 1547 1547 1547 1548 1549 1549 1550 1550 1550 1550 1550 1550 1550 1549 1549 1548 1548 1547 1547 1546 1546 1545 1544 1543 1542
1527 1528 1530 1532 1533 1535 1537 1538 1540 1541 1543 1544 1545 1547 1548 1548 1548 1549 1550 1550 1551 1551 1552 1552 1553 1553 1553 1552 1552 1552 1551 1551 1550 1550 1549 1549 1548 1548 1547 1546 1545 1543 1542
1529 1531 1532 1534 1536 1538 1540 1541 1543 1544 1546 1547 1548 1550 1551 1551 1552 1552 1553 1553 1554 1554 1555 1555 1555 1555 1554 1554 1554 1553 1553 1553 1552 1551 1551 1550 1550 1549 1548 1547 1546 1544 1543
1532 1534 1535 1537 1539 1541 1542 1544 1546 1547 1549 1550 1551 1552 1553 1554 1555 1555 1556 1556 1556 1557 1557 1557 1557 1557 1556 1556 1556 1555 1555 1554 1553 1553 1552 1551 1551 1550 1549 1548 1546 1545 1544
1535 1536 1538 1540 1542 1544 1546 1547 1549 1550 1552 1553 1554 1555 1556 1557 1557 1558 1558 1559 1559 1559 1559 1559 1559 1558 1558 1557 1557 1556 1556 1555 1554 1554 1553 1552 1551 1550 1549 1548 1547 1545 1544
1538 1540 1541 1543 1545 1547 1549 1550 1552 1553 1555 1556 1557 1557 1558 1559 1559 1560 1560 1560 1561 1561 1561 1560 1560 1560 1559 1559 1558 1557 1556 1555 1555 1554 1553 1552 1551 1550 1549 1548 1547 1545 1544
1542 1544 1545 1547 1549 1550 1552 1553 1554 1556 1557 1558 1559 1559 1560 1561 1561 1561 1562 1562 1562 1562 1562 1562 1561 1561 1560 1559 1558 1557 1557 1556 1555 1554 1553 1552 1551 1550 1548 1547 1546 1544 1543
1545 1547 1548 1550 1551 1553 1554 1555 1556 1557 1558 1559 1560 1561 1561 1562 1562 1562 1563 1563 1563 1563 1563 1562 1562 1561 1560 1560 1559 1558 1557 1556 1555 1553 1552 1551 1550 1549 1548 1546 1545 1543 1542